[[{"header":{"parameterUnit":"m.s-1","parameterCategory":1,"la1":30.2991,"la2":30.254,"lo1":-89.0895,"lo2":-89.0444,"dy":0.0017,"dx":0.0017,"nx":28,"ny":28,"refTime":"2024-07-08T03:00:00:Z","depth":0,"parameterNumber":2,"parameterNumberName":"U-component_of_WINDS"},"data":[0,0,0,0,0,0,0,0,0,0,0,0,0,0,0,0,0,0,0,0,0,0,0,0,0,0,0,0,0,0,0,0,0,0,0,0,0,0,0,0,0,0,0,0,0,0,0,0,0,0,0,0,0,0,0,0,0,0,2.8974,2.8974,0,2.9005,2.9005,2.9006,2.893,2.8928,2.8926,2.8923,2.8951,2.8954,2.8957,0,0,0,0,0,0,0,0,0,0,0,0,0,2.8845,2.8848,2.8974,2.8974,2.8975,2.9005,2.9005,2.9006,2.8931,2.8928,2.8925,2.8922,2.895,2.8954,2.8957,0,0,0,0,0,0,0,0,0,0,0,0,0,2.8891,2.8849,2.8974,2.8941,2.8938,2.9005,2.9005,2.9006,2.8931,2.8928,2.8924,2.8921,2.8949,2.8953,2.8958,2.9056,0,0,2.8971,2.8973,0,0,0,0,0,0,0,0,2.8888,2.8896,2.8945,2.8943,2.8941,2.896,2.897,2.9023,2.8932,2.8934,2.8923,2.8919,2.8957,2.896,2.8974,2.9058,2.9059,2.8972,2.8974,2.8976,2.8978,0,0,0,0,0,0,0,2.8885,2.8894,2.8986,2.8946,2.8943,2.8923,2.8926,2.898,2.8965,2.8934,2.8928,2.8933,2.8955,2.897,2.8974,2.9059,2.8972,2.8976,2.8978,2.898,2.9224,2.9227,0,0,0,0,0,0,2.8887,2.8892,2.8985,2.8987,2.8905,2.8929,2.8931,2.8957,2.8964,2.8962,2.8936,2.8929,2.8964,2.8969,2.8975,2.9089,2.8976,2.898,2.8983,2.922,2.9224,2.9229,0,0,0,0,0,0,2.8884,2.8896,2.8984,2.8938,2.8948,2.8935,2.8964,2.896,2.8975,2.8966,2.8963,2.8955,2.8961,2.8969,2.9037,2.9089,2.8982,2.8986,2.9215,2.9221,2.9227,2.9319,0,0,0,0,0,0,2.8881,2.8896,2.8934,2.8939,2.895,2.9046,2.8968,2.8963,2.8983,2.8975,2.8982,2.898,2.8959,2.903,2.9041,2.9093,2.899,2.921,2.9218,2.9225,2.9311,2.9327,2.9341,0,0,0,0,0,2.8877,2.8958,2.8936,2.8948,2.8998,2.905,2.9056,2.9031,2.8988,2.9025,2.902,2.898,2.9082,2.9038,2.9049,2.9103,2.9207,2.9216,2.9224,2.9304,2.9324,2.934,0,0,0,0,0,0,2.8957,2.8958,2.8934,2.902,2.9035,2.9037,2.9083,2.9053,2.908,2.9071,2.9038,2.904,2.9114,2.9116,2.9067,2.9198,2.9137,2.9148,2.9194,2.9212,2.9227,2.9223,2.8994,0,0,0,0,0,2.8985,2.9028,2.9026,2.9102,2.9111,2.9097,2.9118,2.9098,2.9112,2.9118,2.9117,2.9131,2.9166,2.919,2.9222,2.9312,2.9311,2.9355,2.937,2.9382,2.9391,2.9437,2.9455,2.9257,2.9257,2.9257,0,0,2.9042,2.9048,2.9077,2.9118,2.9128,2.9172,2.9102,2.9152,2.9183,2.9125,2.9188,2.9189,2.9203,2.9282,2.9317,2.9285,2.9446,2.9393,2.9403,2.9405,2.9447,2.9466,2.9483,2.9263,2.9262,2.9261,0,0,2.9168,2.9179,2.9242,2.9254,2.927,2.926,2.9275,2.9282,2.928,2.9345,2.9301,2.9338,2.94,2.9411,2.9424,2.9557,2.952,2.9568,2.9644,2.9689,2.9705,2.9718,2.9763,2.978,2.9578,2.9578,2.9578,0,2.9237,2.9303,2.9278,2.933,2.9349,2.9301,2.9363,2.9375,2.9401,2.9414,2.938,2.9456,2.9462,2.9542,2.9574,2.9588,2.9602,2.9565,2.9705,2.9718,2.9731,2.9773,2.979,2.9584,2.9583,2.9582,2.9582,0,2.9385,2.9431,2.948,2.9507,2.9532,2.9589,2.9572,2.9599,2.9578,2.9571,2.9636,2.9642,2.9673,2.9692,2.9671,2.9769,2.9749,2.9711,2.9648,2.9755,2.9794,2.981,2.9591,2.9589,2.9588,2.9586,0,0,2.9559,2.9574,2.9592,2.9603,2.9618,2.9653,2.9708,2.974,2.9763,2.9783,2.9827,2.9881,2.9846,2.9861,2.9841,2.9882,2.9983,2.9838,2.9838,2.9862,3.0089,3.0115,3.0134,2.9961,2.9964,2.9966,3.0086,0,2.9682,2.9777,2.9757,2.985,2.9891,2.9847,2.9895,2.9908,2.9904,2.9937,2.9931,2.9969,2.9921,2.993,2.9968,2.9963,3.0027,2.9954,2.9998,3.0,2.9993,3.0155,3.0183,3.0296,3.0102,3.0104,3.0106,0,2.9837,2.9864,2.9962,2.997,2.9986,3.003,3.0057,3.0091,3.0105,3.0099,3.0117,3.009,3.0142,3.0082,3.0153,3.0104,3.0121,3.0121,3.0125,3.0125,3.0057,3.0157,3.0332,3.0348,3.0131,3.0129,3.0127,0,2.9951,3.0012,3.0078,3.0089,3.0101,3.0132,3.0139,3.015,3.0171,3.0195,3.0207,3.0238,3.0253,3.0276,3.0257,3.0215,3.0331,3.0269,3.0325,3.0325,3.0348,3.0346,3.0526,3.0365,3.0365,3.0365,3.0364,0,3.0088,3.0148,3.0129,3.0169,3.0235,3.0212,3.0278,3.0278,3.0289,3.0327,3.0292,3.0328,3.0302,3.0336,3.0321,3.0381,3.0389,3.0384,3.0379,3.0385,3.0386,3.0394,3.0384,3.0369,3.0368,3.0367,3.0366,0,3.0225,3.0215,3.0283,3.029,3.0293,3.0341,3.0346,3.0382,3.0376,3.0425,3.0435,3.0425,3.0463,3.0447,3.0487,3.0477,3.0553,3.0539,3.0549,3.0544,3.0599,3.0593,3.0787,3.0811,3.0638,3.064,3.0641,0,3.0311,3.0357,3.0369,3.0393,3.0402,3.0441,3.0462,3.0442,3.0465,3.0485,3.0519,3.0555,3.0581,3.0644,3.0639,3.0669,3.0654,3.072,3.0658,3.0663,3.0651,3.0647,3.0651,3.0731,3.0733,3.0735,3.0736,0,3.0464,3.0457,3.049,3.0522,3.0549,3.0572,3.0592,3.0614,3.0594,3.0622,3.0661,3.0682,3.0724,3.0758,3.0786,3.079,3.0759,3.0756,3.077,3.0776,3.0778,3.0775,3.0579,3.0751,3.0749,3.0748,3.0748,3.0747,3.0576,3.0614,3.0629,3.0667,3.068,3.07,3.0734,3.0733,3.0766,3.0799,3.0785,3.083,3.0843,3.0876,3.0886,3.0919,3.0893,3.0914,3.0919,3.0923,3.0929,3.0776,3.0925,3.0924,3.0924,3.0923,3.0923,0,3.0725,3.0733,3.0768,3.0798,3.0827,3.0799,3.082,3.0846,3.0886,3.0902,3.093,3.0974,3.1008,3.1007,3.1038,3.1065,3.1052,3.1074,3.107,3.1071,3.0953,3.0936,3.1084,3.1084,3.1084,3.1084,3.1084,3.1084,3.0805,3.0868,3.0863,3.0931,3.0938,3.0983,3.0997,3.1015,3.1027,3.1079,3.1108,3.1108,3.1116,3.1148,3.1177,3.1176,3.1187,3.1214,3.1207,3.1096,3.108,3.1064,3.1048,3.1218,3.1218,3.1322,3.1323,3.1324]},{"header":{"parameterUnit":"m.s-1","parameterCategory":1,"la1":30.2991,"la2":30.254,"lo1":-89.0895,"lo2":-89.0444,"dy":0.0017,"dx":0.0017,"nx":28,"ny":28,"refTime":"2024-07-08T03:00:00:Z","depth":0,"parameterNumber":3,"parameterNumberName":"V-component_of_WINDS"},"data":[0,0,0,0,0,0,0,0,0,0,0,0,0,0,0,0,0,0,0,0,0,0,0,0,0,0,0,0,0,0,0,0,0,0,0,0,0,0,0,0,0,0,0,0,0,0,0,0,0,0,0,0,0,0,0,0,0,0,7.4126,7.4127,0,7.4259,7.4261,7.4262,7.4221,7.4218,7.4215,7.4213,7.434,7.4346,7.4352,0,0,0,0,0,0,0,0,0,0,0,0,0,7.3825,7.3831,7.4126,7.4127,7.4129,7.4259,7.4261,7.4262,7.4221,7.4218,7.4215,7.4211,7.4339,7.4346,7.4353,0,0,0,0,0,0,0,0,0,0,0,0,0,7.3957,7.3833,7.4125,7.4124,7.4126,7.4259,7.4261,7.4263,7.4222,7.4218,7.4214,7.421,7.4336,7.4345,7.4354,7.4493,0,0,7.4381,7.4385,0,0,0,0,0,0,0,0,7.3949,7.3968,7.4123,7.4125,7.4126,7.4219,7.4202,7.434,7.4223,7.4185,7.4213,7.4208,7.4303,7.4314,7.4348,7.4499,7.4504,7.4382,7.4388,7.4391,7.4394,0,0,0,0,0,0,0,7.394,7.3962,7.4178,7.4125,7.4127,7.4114,7.4128,7.4228,7.4266,7.4188,7.4186,7.4202,7.4303,7.434,7.4351,7.4506,7.4382,7.439,7.4395,7.4399,7.4774,7.4778,0,0,0,0,0,0,7.3931,7.3955,7.4174,7.4182,7.4026,7.4123,7.4139,7.4194,7.4264,7.4271,7.4206,7.42,7.4326,7.4341,7.4355,7.452,7.4391,7.44,7.4405,7.4769,7.4775,7.478,0,0,0,0,0,0,7.3925,7.3951,7.4168,7.4068,7.4094,7.4133,7.4195,7.4198,7.4235,7.4278,7.4283,7.4237,7.4324,7.4343,7.4459,7.4524,7.4404,7.4412,7.4764,7.4771,7.4777,7.4853,0,0,0,0,0,0,7.3917,7.395,7.4005,7.407,7.41,7.4273,7.4199,7.4204,7.4252,7.4245,7.4309,7.4315,7.4322,7.4446,7.4468,7.4534,7.4419,7.4758,7.4767,7.4775,7.4845,7.4861,7.4876,0,0,0,0,0,7.3906,7.402,7.4008,7.4035,7.4171,7.4277,7.4294,7.4302,7.4257,7.4312,7.4339,7.4313,7.4514,7.4458,7.4482,7.4553,7.4754,7.4765,7.4775,7.4838,7.4858,7.4875,0,0,0,0,0,0,7.3959,7.4028,7.4016,7.4155,7.4211,7.427,7.4339,7.4324,7.4392,7.4382,7.4387,7.4401,7.452,7.4548,7.4484,7.4689,7.4627,7.4643,7.4666,7.4686,7.4702,7.4691,7.4426,0,0,0,0,0,7.3988,7.4071,7.4126,7.4242,7.4271,7.4301,7.4347,7.4349,7.4405,7.4428,7.4464,7.4517,7.4592,7.4641,7.4713,7.4849,7.486,7.4909,7.4925,7.4938,7.495,7.5021,7.5042,7.4814,7.4813,7.4813,0,0,7.4046,7.4094,7.4146,7.4254,7.4298,7.438,7.4321,7.4411,7.4471,7.4441,7.4553,7.4581,7.464,7.4767,7.4824,7.4794,7.5016,7.4951,7.4961,7.4966,7.5034,7.5055,7.5075,7.4821,7.4819,7.4818,0,0,7.4194,7.4241,7.4342,7.4387,7.4454,7.4473,7.4497,7.4559,7.4577,7.469,7.4668,7.4739,7.4869,7.4911,7.495,7.5114,7.5091,7.5137,7.5217,7.5286,7.5304,7.532,7.5375,7.5395,7.5149,7.515,7.515,0,7.4257,7.4384,7.4395,7.4487,7.4534,7.4513,7.4613,7.4655,7.4741,7.4772,7.4738,7.49,7.4939,7.5073,7.5113,7.5147,7.5171,7.5128,7.5301,7.5317,7.5332,7.5384,7.5405,7.5155,7.5154,7.5154,7.5153,0,7.4456,7.4545,7.4618,7.4704,7.4759,7.4855,7.4876,7.493,7.4927,7.4948,7.5061,7.5108,7.5187,7.522,7.5217,7.5353,7.5332,7.53,7.5236,7.5359,7.5408,7.5428,7.5162,7.516,7.5158,7.5157,0,0,7.464,7.4732,7.4758,7.4796,7.4868,7.4935,7.5028,7.5109,7.5153,7.5213,7.5289,7.5399,7.537,7.5413,7.5415,7.5476,7.5599,7.5436,7.5437,7.5462,7.5748,7.5769,7.5793,7.5585,7.5589,7.5592,7.5741,0,7.4792,7.4959,7.4971,7.5121,7.52,7.5181,7.5262,7.5313,7.5335,7.5403,7.5426,7.5503,7.546,7.5486,7.5546,7.5571,7.5655,7.5561,7.5652,7.5655,7.5635,7.5819,7.5842,7.5981,7.5761,7.5764,7.5767,0,7.4991,7.5059,7.5218,7.5278,7.5311,7.5384,7.5457,7.5524,7.558,7.5592,7.5641,7.5634,7.5725,7.5661,7.5786,7.5721,7.5759,7.5777,7.5783,7.5789,7.5716,7.5827,7.6026,7.6045,7.5798,7.5795,7.5793,0,7.5105,7.5237,7.5348,7.5381,7.5455,7.5505,7.5538,7.5591,7.5637,7.5701,7.573,7.5802,7.5841,7.5896,7.5907,7.586,7.603,7.5968,7.6039,7.6038,7.6073,7.607,7.6277,7.6103,7.6103,7.6102,7.6102,0,7.5272,7.5368,7.54,7.5468,7.5574,7.5586,7.569,7.5718,7.5765,7.5835,7.5823,7.5889,7.5901,7.5968,7.5977,7.6077,7.6095,7.6104,7.6105,7.6104,7.6102,7.6126,7.6116,7.6108,7.6107,7.6105,7.6105,0,7.5416,7.5442,7.5561,7.5621,7.5638,7.5714,7.5763,7.5827,7.5848,7.5937,7.5958,7.599,7.6068,7.6085,7.6178,7.6184,7.6301,7.6294,7.6283,7.6281,7.635,7.6342,7.6578,7.6607,7.6416,7.6418,7.642,0,7.5519,7.5594,7.5662,7.571,7.5745,7.5822,7.587,7.5883,7.5933,7.6002,7.6056,7.6134,7.6197,7.6322,7.6351,7.6421,7.6413,7.6491,7.6423,7.6419,7.641,7.6405,7.6411,7.6503,7.6505,7.6507,7.6508,0,7.5698,7.5707,7.5779,7.5855,7.5913,7.5972,7.6029,7.6067,7.6088,7.6144,7.6225,7.6274,7.6369,7.6445,7.6515,7.6544,7.6529,7.653,7.6549,7.6547,7.6536,7.654,7.6315,7.6523,7.6522,7.6521,7.652,7.6519,7.5823,7.5887,7.5945,7.6024,7.6069,7.6122,7.6184,7.6213,7.6282,7.6362,7.6365,7.6453,7.6505,7.6598,7.6631,7.6698,7.6673,7.6702,7.6709,7.6715,7.672,7.6529,7.6711,7.671,7.671,7.671,7.6709,0,7.5999,7.6035,7.6109,7.6189,7.625,7.6234,7.6295,7.6346,7.6424,7.6476,7.6538,7.663,7.6703,7.6738,7.681,7.6856,7.685,7.6874,7.6869,7.6875,7.674,7.6714,7.6877,7.6877,7.6877,7.6877,7.6877,7.6877,7.6097,7.6204,7.6219,7.6346,7.6381,7.6469,7.6505,7.6553,7.6593,7.6698,7.6759,7.6783,7.6827,7.6901,7.6966,7.6975,7.7,7.7027,7.7031,7.6903,7.6885,7.6869,7.6845,7.7033,7.7033,7.7161,7.7162,7.7163]}]]